Location: Observatoire
(46.1952°N, 5.3391°E)
Time: 02:38:17
(UTC+02:00)

SEEDS - Visible Passes

Search period start: 24 April 2024 00:00
Search period end: 04 May 2024 00:00
Orbit: 554 x 564 km, 97.7° (Epoch: 23 April)

Date Brightness Start Highest point End Pass type
(mag) Time Alt. Az. Time Alt. Az. Time Alt. Az.
24 Apr ? 04:34:13 10° NE 04:36:39 16° E 04:39:05 10° SE visible
25 Apr ? 04:32:49 10° NE 04:35:09 15° E 04:37:30 10° SE visible
26 Apr ? 04:31:23 10° NE 04:33:37 14° E 04:35:51 10° SE visible
27 Apr ? 04:29:56 10° ENE 04:32:03 14° E 04:34:11 10° ESE visible
28 Apr ? 04:28:27 10° ENE 04:30:28 13° E 04:32:27 10° ESE visible
29 Apr ? 04:26:58 10° ENE 04:28:49 13° E 04:30:41 10° ESE visible
30 Apr ? 04:25:28 10° ENE 04:27:10 12° E 04:28:51 10° ESE visible
01 May ? 04:23:57 10° ENE 04:25:28 12° E 04:26:58 10° ESE visible
02 May ? 04:22:27 10° ENE 04:23:44 11° E 04:25:01 10° ESE visible
03 May ? 04:20:57 10° ENE 04:21:58 11° E 04:22:58 10° ESE visible
